Time,TemperatureF,DewpointF,PressureIn,WindDirection,WindDirectionDegrees,WindSpeedMPH,WindSpeedGustMPH,Humidity,HourlyPrecipIn,Conditions,Clouds,dailyrainin,SoftwareType,DateUTC
2013-06-04 00:14:00,53.5,49.0,29.88,West,281,0.0,0.0,85,0.00,,,0.00,weatherlink.com 1.10,2013-06-04 07:14:00,
2013-06-04 00:29:00,53.6,49.0,29.88,West,281,0.0,1.0,85,0.00,,,0.00,weatherlink.com 1.10,2013-06-04 07:29:00,
2013-06-04 00:44:00,53.6,49.0,29.88,West,281,0.0,1.0,85,0.00,,,0.00,weatherlink.com 1.10,2013-06-04 07:44:00,
2013-06-04 00:59:00,53.6,50.0,29.88,West,281,0.0,1.0,86,0.00,,,0.00,weatherlink.com 1.10,2013-06-04 07:59:00,
2013-06-04 01:14:00,53.7,50.0,29.88,West,281,0.0,0.0,86,0.00,,,0.00,weatherlink.com 1.10,2013-06-04 08:14:00,
2013-06-04 01:29:00,53.8,50.0,29.87,West,281,0.0,0.0,86,0.00,,,0.00,weatherlink.com 1.10,2013-06-04 08:29:00,
2013-06-04 01:44:00,53.9,50.0,29.88,West,281,0.0,1.0,85,0.00,,,0.00,weatherlink.com 1.10,2013-06-04 08:44:00,
2013-06-04 01:59:00,53.9,49.0,29.87,South,186,0.0,2.0,84,0.00,,,0.00,weatherlink.com 1.10,2013-06-04 08:59:00,
2013-06-04 02:14:00,53.8,49.0,29.87,SSE,157,0.0,3.0,85,0.00,,,0.00,weatherlink.com 1.10,2013-06-04 09:14:00,
2013-06-04 02:29:00,53.7,49.0,29.87,South,171,3.0,3.0,84,0.00,,,0.00,weatherlink.com 1.10,2013-06-04 09:29:00,
2013-06-04 02:44:00,53.6,49.0,29.87,South,171,0.0,2.0,85,0.00,,,0.00,weatherlink.com 1.10,2013-06-04 09:44:00,
2013-06-04 02:59:00,53.5,49.0,29.86,South,171,0.0,2.0,85,0.00,,,0.00,weatherlink.com 1.10,2013-06-04 09:59:00,
2013-06-04 03:14:00,53.4,49.0,29.86,South,171,0.0,1.0,85,0.00,,,0.00,weatherlink.com 1.10,2013-06-04 10:14:00,
2013-06-04 03:29:00,53.4,49.0,29.86,South,171,0.0,2.0,86,0.00,,,0.00,weatherlink.com 1.10,2013-06-04 10:29:00,
2013-06-04 03:44:00,53.4,49.0,29.86,South,171,2.0,3.0,85,0.00,,,0.00,weatherlink.com 1.10,2013-06-04 10:44:00,
2013-06-04 03:59:00,53.4,49.0,29.86,South,171,0.0,2.0,85,0.00,,,0.00,weatherlink.com 1.10,2013-06-04 10:59:00,
2013-06-04 04:14:00,53.3,49.0,29.87,South,171,0.0,2.0,85,0.00,,,0.00,weatherlink.com 1.10,2013-06-04 11:14:00,
2013-06-04 04:29:00,53.3,49.0,29.87,South,171,0.0,2.0,85,0.00,,,0.00,weatherlink.com 1.10,2013-06-04 11:29:00,
2013-06-04 04:44:00,53.3,49.0,29.87,South,171,1.0,2.0,86,0.00,,,0.00,weatherlink.com 1.10,2013-06-04 11:44:00,
2013-06-04 04:59:00,53.2,49.0,29.87,SSE,168,1.0,3.0,86,0.00,,,0.00,weatherlink.com 1.10,2013-06-04 11:59:00,
2013-06-04 05:14:00,53.1,49.0,29.87,SSE,163,1.0,3.0,86,0.00,,,0.00,weatherlink.com 1.10,2013-06-04 12:14:00,
2013-06-04 05:29:00,53.0,49.0,29.87,SE,140,0.0,3.0,86,0.00,,,0.00,weatherlink.com 1.10,2013-06-04 12:29:00,
2013-06-04 05:44:00,53.0,49.0,29.88,SE,140,1.0,3.0,86,0.00,,,0.00,weatherlink.com 1.10,2013-06-04 12:44:00,
2013-06-04 05:59:00,53.0,49.0,29.88,SSE,167,0.0,3.0,86,0.00,,,0.00,weatherlink.com 1.10,2013-06-04 12:59:00,
2013-06-04 06:15:00,53.0,49.0,29.88,SSE,164,0.0,3.0,85,0.00,,,0.00,weatherlink.com 1.10,2013-06-04 13:15:00,
2013-06-04 06:30:00,53.0,49.0,29.89,South,186,0.0,4.0,85,0.00,,,0.00,weatherlink.com 1.10,2013-06-04 13:30:00,
2013-06-04 06:45:00,53.0,49.0,29.89,South,176,1.0,2.0,86,0.00,,,0.00,weatherlink.com 1.10,2013-06-04 13:45:00,
2013-06-04 07:00:00,53.0,49.0,29.90,SSW,208,0.0,3.0,86,0.00,,,0.00,weatherlink.com 1.10,2013-06-04 14:00:00,
2013-06-04 07:15:00,52.9,49.0,29.90,South,183,0.0,1.0,86,0.00,,,0.00,weatherlink.com 1.10,2013-06-04 14:15:00,
2013-06-04 07:30:00,53.0,49.0,29.91,SSE,167,1.0,3.0,86,0.00,,,0.00,weatherlink.com 1.10,2013-06-04 14:30:00,
2013-06-04 07:45:00,53.3,49.0,29.91,SE,142,5.0,6.0,85,0.00,,,0.00,weatherlink.com 1.10,2013-06-04 14:45:00,
2013-06-04 08:00:00,53.5,49.0,29.92,SE,138,1.0,4.0,85,0.00,,,0.00,weatherlink.com 1.10,2013-06-04 15:00:00,
2013-06-04 08:15:00,53.6,50.0,29.92,SSE,156,1.0,2.0,86,0.00,,,0.00,weatherlink.com 1.10,2013-06-04 15:15:00,
2013-06-04 08:30:00,54.0,50.0,29.93,SE,138,4.0,4.0,85,0.00,,,0.00,weatherlink.com 1.10,2013-06-04 15:30:00,
2013-06-04 08:45:00,54.1,50.0,29.93,SSE,159,1.0,4.0,85,0.00,,,0.00,weatherlink.com 1.10,2013-06-04 15:45:00,
2013-06-04 09:00:00,54.3,50.0,29.94,SSE,159,0.0,3.0,84,0.00,,,0.00,weatherlink.com 1.10,2013-06-04 16:00:00,
2013-06-04 09:15:00,54.4,50.0,29.94,SSE,163,0.0,3.0,84,0.00,,,0.00,weatherlink.com 1.10,2013-06-04 16:15:00,
2013-06-04 09:30:00,54.6,50.0,29.94,SE,134,0.0,6.0,83,0.00,,,0.00,weatherlink.com 1.10,2013-06-04 16:30:00,
2013-06-04 09:45:00,55.0,50.0,29.95,South,180,3.0,6.0,83,0.00,,,0.00,weatherlink.com 1.10,2013-06-04 16:45:00,
2013-06-04 10:00:00,55.3,50.0,29.95,SSE,153,1.0,6.0,83,0.00,,,0.00,weatherlink.com 1.10,2013-06-04 17:00:00,
2013-06-04 10:15:00,55.7,50.0,29.95,SE,146,2.0,7.0,82,0.00,,,0.00,weatherlink.com 1.10,2013-06-04 17:15:00,
2013-06-04 10:30:00,56.2,50.0,29.95,SE,138,1.0,7.0,81,0.00,,,0.00,weatherlink.com 1.10,2013-06-04 17:30:00,
2013-06-04 10:45:00,56.6,50.0,29.95,SSE,151,2.0,5.0,79,0.00,,,0.00,weatherlink.com 1.10,2013-06-04 17:45:00,
2013-06-04 11:00:00,57.1,51.0,29.96,SE,130,1.0,6.0,79,0.00,,,0.00,weatherlink.com 1.10,2013-06-04 18:00:00,
2013-06-04 11:15:00,57.9,51.0,29.96,SE,144,1.0,8.0,79,0.00,,,0.00,weatherlink.com 1.10,2013-06-04 18:15:00,
2013-06-04 11:30:00,58.8,51.0,29.95,SW,229,0.0,5.0,75,0.00,,,0.00,weatherlink.com 1.10,2013-06-04 18:30:00,
2013-06-04 11:45:00,59.4,51.0,29.96,South,182,1.0,5.0,75,0.00,,,0.00,weatherlink.com 1.10,2013-06-04 18:45:00,
2013-06-04 12:00:00,60.1,52.0,29.96,SE,137,2.0,8.0,74,0.00,,,0.00,weatherlink.com 1.10,2013-06-04 19:00:00,
2013-06-04 12:15:00,60.5,52.0,29.96,ESE,114,2.0,7.0,73,0.00,,,0.00,weatherlink.com 1.10,2013-06-04 19:15:00,
2013-06-04 12:30:00,60.1,52.0,29.96,SSE,151,6.0,9.0,74,0.00,,,0.00,weatherlink.com 1.10,2013-06-04 19:30:00,
2013-06-04 12:45:00,60.2,52.0,29.96,SE,132,3.0,9.0,74,0.00,,,0.00,weatherlink.com 1.10,2013-06-04 19:45:00,
2013-06-04 13:00:00,60.9,52.0,29.96,SSE,149,3.0,8.0,72,0.00,,,0.00,weatherlink.com 1.10,2013-06-04 20:00:00,
2013-06-04 13:15:00,61.2,52.0,29.96,SSW,201,4.0,10.0,72,0.00,,,0.00,weatherlink.com 1.10,2013-06-04 20:15:00,
2013-06-04 13:30:00,63.0,53.0,29.96,ESE,110,2.0,7.0,69,0.00,,,0.00,weatherlink.com 1.10,2013-06-04 20:30:00,
2013-06-04 13:45:00,62.4,52.0,29.96,SE,144,7.0,9.0,70,0.00,,,0.00,weatherlink.com 1.10,2013-06-04 20:45:00,
2013-06-04 14:01:00,61.7,52.0,29.96,SE,138,3.0,13.0,71,0.00,,,0.00,weatherlink.com 1.10,2013-06-04 21:01:00,
2013-06-04 14:15:00,62.0,52.0,29.96,SE,137,6.0,12.0,70,0.00,,,0.00,weatherlink.com 1.10,2013-06-04 21:15:00,
2013-06-04 14:30:00,61.8,52.0,29.95,ESE,119,5.0,12.0,70,0.00,,,0.00,weatherlink.com 1.10,2013-06-04 21:30:00,
2013-06-04 14:45:00,63.1,52.0,29.95,WNW,292,3.0,11.0,68,0.00,,,0.00,weatherlink.com 1.10,2013-06-04 21:45:00,
2013-06-04 15:01:00,64.3,53.0,29.95,North,5,0.0,14.0,67,0.00,,,0.00,weatherlink.com 1.10,2013-06-04 22:01:00,
2013-06-04 15:16:00,63.8,53.0,29.95,ESE,123,11.0,14.0,67,0.00,,,0.00,weatherlink.com 1.10,2013-06-04 22:16:00,
2013-06-04 15:31:00,62.9,52.0,29.94,ESE,123,5.0,14.0,68,0.00,,,0.00,weatherlink.com 1.10,2013-06-04 22:31:00,
2013-06-04 15:46:00,63.0,52.0,29.94,SSE,168,10.0,11.0,68,0.00,,,0.00,weatherlink.com 1.10,2013-06-04 22:46:00,
2013-06-04 16:01:00,63.2,52.0,29.93,NE,36,1.0,13.0,68,0.00,,,0.00,weatherlink.com 1.10,2013-06-04 23:01:00,
2013-06-04 16:16:00,63.9,53.0,29.93,SE,135,6.0,9.0,67,0.00,,,0.00,weatherlink.com 1.10,2013-06-04 23:16:00,
2013-06-04 16:31:00,63.6,52.0,29.93,SE,136,4.0,10.0,67,0.00,,,0.00,weatherlink.com 1.10,2013-06-04 23:31:00,
2013-06-04 16:46:00,64.8,53.0,29.93,SE,146,1.0,7.0,66,0.00,,,0.00,weatherlink.com 1.10,2013-06-04 23:46:00,
2013-06-04 17:01:00,64.9,53.0,29.93,SE,129,2.0,8.0,66,0.00,,,0.00,weatherlink.com 1.10,2013-06-05 00:01:00,
2013-06-04 17:16:00,63.5,52.0,29.93,SSE,149,7.0,11.0,67,0.00,,,0.00,weatherlink.com 1.10,2013-06-05 00:16:00,
2013-06-04 17:31:00,62.3,52.0,29.92,SE,126,5.0,13.0,68,0.00,,,0.00,weatherlink.com 1.10,2013-06-05 00:31:00,
2013-06-04 17:46:00,62.0,52.0,29.92,SE,132,5.0,11.0,69,0.00,,,0.00,weatherlink.com 1.10,2013-06-05 00:46:00,
2013-06-04 18:01:00,61.6,52.0,29.92,SSE,150,4.0,10.0,70,0.00,,,0.00,weatherlink.com 1.10,2013-06-05 01:01:00,
2013-06-04 18:16:00,60.8,51.0,29.92,SE,126,6.0,10.0,71,0.00,,,0.00,weatherlink.com 1.10,2013-06-05 01:16:00,
2013-06-04 18:31:00,60.4,51.0,29.92,SSE,163,1.0,10.0,72,0.00,,,0.00,weatherlink.com 1.10,2013-06-05 01:31:00,
2013-06-04 18:46:00,61.4,52.0,29.92,SE,130,3.0,6.0,70,0.00,,,0.00,weatherlink.com 1.10,2013-06-05 01:46:00,
2013-06-04 19:01:00,61.3,51.0,29.92,SW,227,2.0,5.0,70,0.00,,,0.00,weatherlink.com 1.10,2013-06-05 02:01:00,
2013-06-04 19:16:00,60.5,51.0,29.93,WSW,240,0.0,4.0,71,0.00,,,0.00,weatherlink.com 1.10,2013-06-05 02:16:00,
2013-06-04 19:31:00,59.2,51.0,29.93,WNW,284,1.0,6.0,74,0.00,,,0.00,weatherlink.com 1.10,2013-06-05 02:31:00,
2013-06-04 19:46:00,58.2,50.0,29.93,West,261,2.0,4.0,75,0.00,,,0.00,weatherlink.com 1.10,2013-06-05 02:46:00,
2013-06-04 20:31:00,55.1,49.0,29.94,ESE,114,0.0,1.0,80,0.00,,,0.00,weatherlink.com 1.10,2013-06-05 03:31:00,
2013-06-04 20:46:00,54.4,49.0,29.94,WSW,250,1.0,3.0,82,0.00,,,0.00,weatherlink.com 1.10,2013-06-05 03:46:00,
2013-06-04 21:01:00,53.8,49.0,29.94,ESE,123,1.0,4.0,83,0.00,,,0.00,weatherlink.com 1.10,2013-06-05 04:01:00,
2013-06-04 21:16:00,53.5,49.0,29.95,WSW,242,1.0,5.0,84,0.00,,,0.00,weatherlink.com 1.10,2013-06-05 04:16:00,
2013-06-04 21:46:00,53.5,49.0,29.95,North,355,0.0,2.0,85,0.00,,,0.00,weatherlink.com 1.10,2013-06-05 04:46:00,
2013-06-04 22:16:00,53.6,49.0,29.96,SE,144,0.0,3.0,85,0.00,,,0.00,weatherlink.com 1.10,2013-06-05 05:16:00,
2013-06-04 22:31:00,53.4,49.0,29.96,SSE,148,0.0,3.0,85,0.00,,,0.00,weatherlink.com 1.10,2013-06-05 05:31:00,
2013-06-04 23:16:00,53.3,49.0,29.97,WSW,241,1.0,3.0,86,0.00,,,0.00,weatherlink.com 1.10,2013-06-05 06:16:00,
2013-06-04 23:31:00,53.1,49.0,29.97,North,355,2.0,4.0,86,0.00,,,0.00,weatherlink.com 1.10,2013-06-05 06:31:00,
2013-06-04 23:46:00,53.0,49.0,29.97,West,271,0.0,5.0,86,0.00,,,0.00,weatherlink.com 1.10,2013-06-05 06:46:00,